Weather History for Bridgeport, CT

Change the Weather History Date:

Wednesday, March 6, 2013

  Actual Average Record
Temperature  
Mean Temperature 39 °F 36 °F  
Max Temperature 42 °F 44 °F 59 °F (1976)
Min Temperature 36 °F 29 °F 11 °F (2007)
Degree Days  
Heating Degree Days 26 29  
Month to date heating degree days 162 176  
Since 1 July heating degree days 3785 4063  
Cooling Degree Days 0 0  
Month to date cooling degree days 0 0  
Year to date cooling degree days 0 0  
Moisture  
Dew Point 32 °F    
Average Humidity 74    
Maximum Humidity 85    
Minimum Humidity 62    
Precipitation  
Precipitation T in 0.12 in 2.36 in (1979)
Month to date precipitation T 0.73  
Year to date precipitation 7.02 6.62  
Snow  
Snow T in 0.30 in 7.00 in (2003)
Month to date snowfall T 1.5  
Since 1 July snowfall 51.3 23.1  
Snow Depth 0.00 in    
Sea Level Pressure  
Sea Level Pressure 29.94 in    
Wind  
Wind Speed 19 mph (ENE)    
Max Wind Speed 31 mph    
Max Gust Speed 45 mph    
Visibility 10 miles    
Events Rain , Snow    
T = Trace of Precipitation, MM = Missing Value Source: NWS Daily Summary

Daily Weather History Graph

Daily Weather History Graph

Search for Another Location

Airport:

Trip Planner

Search our weather history database for the weather conditions in past years. The results will help you decide how hot, cold, wet, or windy it might be!

Date:

Astronomy

Mar. 06, 2013 Rise Set
Actual Time 6:18 AM EST 5:49 PM EST
Civil Twilight 5:51 AM EST 6:16 PM EST
Nautical Twilight 5:19 AM EST 6:48 PM EST
Astronomical Twilight 4:47 AM EST 7:20 PM EST
Moon 2:27 AM EST (3/6) 12:25 PM EST (3/6)
Length of Visible Light 12h 25m
Length of Day
11h 30m
Waning Crescent, 30% of the Moon is Illuminated
Mar 6
Waning Crescent
Mar 11
New
Mar 19
First Quarter
Mar 27
Full
Apr 3
Last Quarter

Hourly Weather History & Observations

Time (EST) Temp. Windchill Dew Point Humidity Pressure Visibility Wind Dir Wind Speed Gust Speed Precip Events Conditions
12:52 AM 37.9 °F 32.7 °F 32.0 °F 79% 30.01 in 10.0 mi East 6.9 mph - N/A   Scattered Clouds
1:52 AM 37.9 °F 31.5 °F 32.0 °F 79% 30.00 in 10.0 mi ENE 9.2 mph - N/A   Overcast
2:52 AM 39.0 °F 31.8 °F 32.0 °F 76% 29.98 in 10.0 mi ENE 11.5 mph - N/A   Overcast
3:52 AM 39.0 °F 31.8 °F 30.9 °F 73% 29.97 in 10.0 mi ENE 11.5 mph - N/A   Overcast
4:52 AM 39.0 °F 30.6 °F 32.0 °F 76% 29.96 in 10.0 mi ENE 15.0 mph - N/A   Mostly Cloudy
5:38 AM 39.2 °F 30.8 °F 32.0 °F 75% 29.97 in 10.0 mi ENE 15.0 mph - N/A   Mostly Cloudy
5:52 AM 37.9 °F 29.2 °F 32.0 °F 79% 29.96 in 10.0 mi ENE 15.0 mph - N/A   Overcast
6:12 AM 37.4 °F 28.2 °F 32.0 °F 81% 29.96 in 10.0 mi NE 16.1 mph - N/A   Mostly Cloudy
6:37 AM 39.2 °F 30.2 °F 32.0 °F 75% 29.96 in 10.0 mi ENE 17.3 mph - N/A   Overcast
6:52 AM 39.0 °F 29.6 °F 32.0 °F 76% 29.96 in 10.0 mi ENE 18.4 mph - N/A   Overcast
7:52 AM 39.0 °F 29.9 °F 32.0 °F 76% 29.96 in 10.0 mi ENE 17.3 mph 26.5 mph N/A   Overcast
8:52 AM 39.9 °F 30.8 °F 33.1 °F 77% 29.96 in 10.0 mi ENE 18.4 mph 25.3 mph N/A   Overcast
9:52 AM 41.0 °F 32.8 °F 34.0 °F 76% 29.95 in 10.0 mi East 16.1 mph - N/A   Overcast
10:52 AM 39.9 °F 30.2 °F 36.0 °F 86% 29.95 in 6.0 mi East 20.7 mph - 0.00 in Rain Light Rain
11:09 AM 39.2 °F 29.8 °F 37.4 °F 93% 29.95 in 10.0 mi East 18.4 mph 27.6 mph 0.00 in   Overcast
11:26 AM 39.2 °F 29.0 °F 35.6 °F 87% 29.95 in 7.0 mi ENE 21.9 mph 32.2 mph 0.00 in Rain Light Rain
11:43 AM 41.0 °F 30.9 °F 37.4 °F 87% 29.93 in 10.0 mi East 24.2 mph 32.2 mph 0.00 in Rain Light Rain
11:52 AM 39.2 °F 28.5 °F 35.6 °F 87% 29.94 in 8.0 mi East 24.2 mph 28.8 mph N/A Rain Light Rain
12:17 PM 41.0 °F 32.2 °F 37.4 °F 87% 29.92 in 10.0 mi East 18.4 mph - 0.00 in   Overcast
12:44 PM 39.2 °F 29.6 °F 35.6 °F 87% 29.91 in 9.0 mi ENE 19.6 mph - 0.00 in Rain Light Rain
12:52 PM 39.9 °F 30.5 °F 36.0 °F 86% 29.91 in 9.0 mi ENE 19.6 mph - 0.00 in Rain Light Rain
1:52 PM 42.1 °F 32.8 °F 30.9 °F 65% 29.91 in 10.0 mi NE 21.9 mph 32.2 mph 0.00 in   Overcast
2:52 PM 42.1 °F 33.3 °F 30.9 °F 65% 29.91 in 10.0 mi ENE 19.6 mph 33.4 mph 0.00 in   Overcast
3:52 PM 42.1 °F 32.3 °F 30.9 °F 65% 29.90 in 10.0 mi NE 24.2 mph 38.0 mph N/A   Overcast
4:52 PM 39.9 °F 30.5 °F 32.0 °F 73% 29.91 in 8.0 mi NE 19.6 mph 28.8 mph 0.00 in Rain Light Rain
5:52 PM 39.9 °F 29.7 °F 30.9 °F 70% 29.93 in 10.0 mi NE 23.0 mph 38.0 mph 0.00 in   Overcast
6:52 PM 39.9 °F 29.0 °F 28.9 °F 65% 29.93 in 10.0 mi NE 26.5 mph 41.4 mph N/A   Overcast
7:52 PM 39.0 °F 27.8 °F 28.9 °F 67% 29.93 in 10.0 mi NNE 26.5 mph 40.3 mph N/A   Overcast
8:52 PM 39.0 °F 27.8 °F 28.9 °F 67% 29.93 in 10.0 mi NNE 26.5 mph 36.8 mph N/A   Overcast
9:52 PM 37.9 °F 26.3 °F 28.9 °F 70% 29.93 in 10.0 mi NNE 26.5 mph 40.3 mph N/A   Overcast
10:52 PM 37.0 °F 26.7 °F 28.9 °F 73% 29.95 in 6.0 mi NNE 19.6 mph 38.0 mph 0.00 in Snow Light Snow
11:15 PM 37.4 °F 26.6 °F 30.2 °F 75% 29.94 in 9.0 mi NNE 21.9 mph 38.0 mph 0.00 in   Overcast
11:52 PM 37.0 °F 25.6 °F 30.0 °F 76% 29.92 in 10.0 mi NNE 24.2 mph 35.7 mph 0.00 in   Overcast